Wind_Speed
7 7 7 7 8 9 10 10 11 11 10 11 11 11 11 12 12 12 12 13 13 12 13 12 13 13 13 14 14 14 15 14 15 15 15 16 16 16 16 17 17 17 17 16
7 7 8 9 10 11 11 11 12 12 11 12 12 12 12 11 11 11 12 13 13 13 13 13 13 14 14 15 15 15 15 15 15 15 16 16 16 16 17 17 17 17 16 15
8 8 9 9 11 12 11 11 12 13 12 12 13 13 12 12 12 12 12 13 13 13 13 13 14 14 14 15 15 16 15 15 15 15 16 16 17 18 17 17 17 16 16 15
8 8 9 10 11 12 12 12 12 14 14 12 12 12 12 13 13 13 13 14 14 14 14 14 15 15 16 16 16 17 16 16 16 17 17 17 18 18 18 17 17 17 17 17
8 10 10 11 11 12 12 12 12 12 12 11 10 12 12 14 14 14 14 14 15 15 16 16 17 17 17 17 18 18 17 18 18 19 19 18 18 18 18 18 18 17 17 17
9 10 11 11 11 12 12 12 11 11 11 11 11 13 14 15 15 14 14 15 15 16 16 17 17 17 18 18 18 18 19 19 19 19 19 19 19 18 18 18 17 17 17 18
9 10 11 11 11 11 11 11 11 11 11 12 13 14 16 15 15 16 16 16 16 17 17 18 18 18 19 19 19 19 19 19 19 19 19 19 19 18 18 19 19 19 19 19
9 11 11 11 11 12 12 12 12 13 13 13 14 16 17 16 17 17 17 17 18 18 19 19 19 19 19 19 19 20 20 20 20 19 20 20 20 20 20 20 20 20 19 20
11 12 12 12 12 12 12 12 12 14 14 14 15 17 18 18 18 18 18 18 19 19 20 20 20 20 20 20 20 20 21 20 20 20 20 21 21 21 21 21 21 21 21 21
12 13 13 13 13 13 13 13 12 13 14 14 14 17 19 18 19 19 20 19 19 20 21 21 21 22 21 21 21 21 21 21 21 21 21 21 22 22 22 22 22 22 23 23
13 14 15 15 14 13 13 13 13 14 15 15 16 18 20 21 22 22 22 22 22 22 22 22 22 22 22 22 22 22 22 22 22 23 23 22 22 23 23 23 24 24 24 24
14 15 15 16 15 14 14 15 14 15 15 17 18 21 22 22 22 23 23 23 23 23 23 23 23 23 23 23 23 23 23 23 23 23 23 23 23 23 23 24 24 24 25 25
15 15 15 15 17 16 16 16 16 16 17 17 18 21 23 23 23 23 24 24 24 24 24 24 24 24 24 24 24 23 23 23 23 23 24 24 24 24 24 25 25 25 26 26
15 15 15 15 17 18 18 17 17 18 18 19 19 21 23 24 25 25 25 25 25 25 25 25 24 24 24 24 24 25 24 24 24 24 25 25 25 25 25 25 25 26 26 27
16 16 16 17 17 19 20 19 19 20 20 21 22 23 25 25 24 25 26 26 27 26 26 26 25 25 25 25 26 26 26 26 26 26 26 26 26 26 26 26 26 26 26 26
17 17 17 18 18 20 21 20 21 22 22 22 23 24 25 25 25 25 25 26 26 26 26 26 27 27 27 26 26 26 26 26 26 27 27 26 26 27 27 26 27 27 26 26
18 18 19 20 20 21 22 22 22 23 23 24 25 26 25 26 26 25 25 25 25 26 26 27 28 28 28 27 27 27 27 26 26 26 26 27 27 27 27 27 27 27 26 26
19 20 20 21 22 23 23 23 23 24 24 25 26 27 27 27 27 27 26 26 26 26 26 27 28 29 29 29 28 28 28 27 27 27 27 27 27 27 27 27 27 27 26 26
20 20 22 22 23 25 24 24 24 24 26 26 27 27 27 28 28 28 28 27 27 28 28 28 28 28 28 28 28 28 28 28 28 28 28 28 27 27 27 27 27 27 27 27
19 20 21 23 24 26 25 24 24 25 26 26 27 28 28 28 29 29 29 29 28 28 29 29 29 28 28 28 29 29 29 29 29 29 28 28 28 28 28 27 27 27 27 27
21 22 22 23 24 26 25 25 25 26 27 27 28 29 28 28 29 29 29 29 30 29 29 29 29 29 29 29 30 30 30 30 29 29 29 29 29 28 28 28 28 27 27 27
23 24 25 25 26 26 26 26 26 27 27 28 29 29 29 29 28 28 29 29 29 29 28 29 29 29 29 30 31 31 31 30 30 29 29 29 29 29 29 28 28 28 27 27
24 25 26 27 27 27 28 27 28 28 29 28 28 29 29 29 29 27 28 29 29 29 28 29 29 29 29 30 30 31 31 31 30 30 30 29 29 29 29 28 28 28 27 27
26 26 27 28 28 28 28 28 28 28 29 29 29 29 29 29 29 29 29 29 29 30 29 29 29 29 29 30 30 31 31 30 30 30 29 29 29 29 29 28 28 27 28 28
27 27 28 28 28 29 29 29 29 30 30 30 30 29 28 29 29 30 30 30 29 30 30 30 30 30 30 30 30 31 32 31 31 30 30 29 29 29 28 28 28 28 28 28
27 28 28 28 28 29 30 30 30 30 29 29 29 28 28 28 29 30 30 30 30 30 30 31 31 30 30 30 30 30 29 29 29 30 30 29 29 28 29 28 28 28 28 27
Wind_Direction
278 274 274 273 272 274 273 273 273 276 277 276 276 277 274 277 277 274 271 272 272 274 274 276 278 281 284 286 286 285 285 283 282 282 281 279 278 278 279 283 284 285 285 286
273 273 277 276 273 271 270 273 274 274 274 275 276 278 276 275 277 274 272 272 274 274 275 276 279 281 284 286 286 285 284 283 282 282 281 280 279 277 280 283 285 286 285 285
277 276 279 274 273 274 273 271 272 270 273 276 276 275 277 275 275 272 270 271 273 273 274 278 281 283 285 287 287 286 285 284 282 283 282 280 279 280 280 281 282 285 285 283
277 280 282 279 277 276 274 271 271 274 276 277 274 276 273 273 271 273 273 274 274 273 274 278 280 284 285 285 286 284 284 283 282 282 282 283 282 282 282 280 279 281 282 283
285 284 281 279 279 276 275 274 270 274 279 279 280 279 280 278 276 273 272 273 275 275 277 280 282 283 284 284 282 280 282 281 281 280 280 282 282 283 282 280 279 279 280 281
285 285 283 282 281 277 276 274 271 276 282 281 284 280 281 279 281 281 277 277 277 276 278 281 283 284 284 283 281 279 279 280 281 280 278 278 279 280 280 278 276 280 281 282
290 288 287 286 284 280 277 276 275 277 282 281 284 282 278 281 284 287 286 284 280 278 278 280 282 282 283 283 280 279 280 281 281 280 278 278 278 279 280 278 277 279 279 281
290 288 286 287 286 283 280 277 274 270 264 266 274 277 278 283 284 284 283 282 282 280 280 281 282 281 281 281 280 279 279 280 279 278 278 278 279 280 279 278 277 280 281 283
287 285 287 287 286 283 279 275 274 274 270 268 269 273 273 276 280 281 280 280 284 282 281 281 281 281 281 281 279 278 278 278 277 278 279 280 279 280 279 278 277 278 281 283
285 288 288 285 282 279 277 277 276 273 270 267 267 271 273 279 282 283 282 282 284 284 281 280 281 283 282 281 279 279 278 278 278 278 279 280 280 279 279 278 277 278 281 282
284 287 288 287 287 285 279 276 273 272 271 269 266 268 273 278 283 286 287 287 285 285 285 283 281 283 282 280 279 279 278 278 278 278 279 279 278 278 278 277 278 279 281 282
285 285 285 285 284 281 275 276 276 274 273 270 272 272 274 277 281 285 285 285 285 284 284 285 283 281 280 279 278 279 279 279 278 278 279 278 278 278 278 279 279 280 281 282
286 285 285 283 282 280 274 270 271 271 271 270 272 275 277 279 282 284 284 284 285 284 283 283 283 283 281 279 278 278 279 279 279 279 280 279 280 280 280 280 280 281 281 281
287 286 284 281 279 282 278 275 273 272 272 271 270 275 276 278 280 281 282 284 285 285 284 283 283 283 282 280 279 279 279 278 279 279 280 280 280 280 280 280 281 281 281 281
289 288 285 281 278 278 280 279 276 274 274 275 274 274 276 278 280 282 284 284 285 285 284 283 283 284 284 282 281 280 279 279 278 279 279 279 280 279 279 280 281 282 281 281
291 290 288 285 283 280 278 278 276 273 274 275 276 276 279 281 279 280 281 283 284 283 282 282 282 283 284 284 282 281 281 281 280 280 280 279 279 279 280 280 280 281 280 280
291 289 287 286 286 283 281 280 278 275 275 276 275 277 278 279 280 281 281 282 283 283 282 281 282 282 283 283 282 281 280 281 282 282 281 280 279 279 279 280 280 280 280 279
289 289 288 288 287 285 288 287 284 280 278 277 276 275 276 277 279 282 281 279 280 281 282 283 282 282 281 280 279 280 279 280 280 280 280 280 279 279 279 279 279 279 279 279
290 290 290 290 289 289 290 290 289 286 282 278 276 277 277 277 278 279 280 280 280 280 280 282 282 282 281 280 278 279 279 279 279 279 278 278 278 279 279 279 279 279 278 278
290 290 289 290 290 291 294 293 290 287 284 283 280 278 278 277 277 280 281 281 281 281 280 281 281 281 280 280 279 279 279 278 278 278 277 276 276 278 278 278 278 278 279 279
289 288 287 289 290 291 295 294 292 288 288 286 285 284 281 280 279 281 282 282 282 281 280 280 281 280 280 280 280 278 279 278 277 277 276 275 275 275 275 276 276 277 277 278
290 290 289 291 290 291 295 293 291 290 289 287 287 286 283 280 281 281 283 285 285 283 282 281 282 282 282 281 281 279 279 278 277 275 275 275 274 273 273 273 274 276 276 276
288 290 290 290 291 292 291 292 291 290 290 289 289 288 284 281 282 282 283 285 285 285 283 283 283 283 283 283 283 281 279 278 278 276 274 273 273 272 272 272 273 274 275 277
287 288 288 288 290 289 288 289 289 290 290 289 291 291 287 285 284 284 284 285 286 286 285 285 285 285 284 284 283 282 280 278 277 276 274 273 273 272 271 271 271 272 274 276
285 286 286 287 288 288 287 288 288 290 291 290 290 291 289 287 286 285 287 287 286 286 286 286 286 285 284 284 283 282 280 277 276 275 273 273 272 271 270 270 269 271 274 275
284 284 285 286 288 287 287 288 288 290 292 292 291 289 288 288 288 288 288 288 287 287 286 286 286 286 285 284 284 283 281 277 274 272 272 272 271 270 269 269 270 272 274 274
Height
5825 5826 5825 5826 5827 5827 5827 5828 5828 5827 5827 5827 5827 5828 5828 5828 5828 5828 5828 5828 5829 5830 5830 5830 5830 5830 5830 5830 5830 5830 5829 5829 5829 5829 5828 5828 5828 5828 5828 5828 5827 5827 5826 5826
5824 5824 5824 5824 5825 5825 5825 5825 5825 5825 5825 5825 5825 5825 5825 5825 5826 5826 5826 5826 5826 5827 5827 5827 5827 5827 5827 5827 5827 5826 5826 5826 5825 5825 5825 5825 5824 5824 5824 5824 5823 5823 5822 5822
5821 5822 5822 5822 5822 5822 5822 5822 5822 5822 5822 5822 5822 5823 5823 5823 5823 5823 5824 5824 5824 5824 5824 5824 5824 5824 5824 5824 5823 5823 5822 5822 5822 5822 5821 5821 5821 5821 5820 5820 5820 5819 5819 5819
5819 5819 5819 5819 5819 5819 5819 5820 5820 5819 5819 5819 5820 5820 5821 5820 5820 5820 5821 5821 5821 5821 5821 5821 5821 5821 5821 5820 5819 5819 5819 5818 5818 5818 5817 5817 5816 5816 5816 5816 5816 5815 5815 5815
5816 5817 5817 5817 5817 5816 5816 5816 5817 5816 5816 5816 5817 5817 5818 5817 5817 5818 5818 5818 5818 5818 5818 5818 5818 5817 5817 5816 5816 5815 5815 5814 5814 5814 5813 5813 5812 5812 5811 5811 5811 5811 5811 5810
5815 5814 5814 5814 5814 5814 5813 5814 5814 5813 5813 5813 5815 5815 5814 5814 5814 5815 5815 5815 5815 5815 5815 5814 5814 5813 5813 5812 5811 5811 5810 5810 5810 5809 5808 5808 5808 5807 5807 5807 5807 5807 5806 5806
5812 5812 5811 5811 5811 5811 5811 5811 5811 5810 5811 5812 5812 5812 5812 5811 5812 5812 5812 5812 5812 5811 5811 5810 5810 5809 5809 5808 5807 5806 5806 5805 5805 5804 5804 5804 5803 5803 5802 5802 5802 5802 5802 5801
5809 5810 5809 5808 5808 5808 5807 5808 5809 5809 5809 5809 5810 5809 5809 5808 5808 5808 5808 5808 5808 5807 5807 5806 5805 5805 5804 5803 5803 5802 5801 5801 5800 5800 5799 5799 5799 5798 5797 5797 5797 5797 5797 5796
5807 5807 5806 5805 5805 5805 5804 5804 5805 5806 5805 5806 5806 5806 5805 5804 5804 5804 5804 5804 5804 5803 5802 5801 5801 5800 5799 5799 5798 5797 5797 5796 5795 5795 5794 5794 5794 5793 5793 5792 5792 5792 5792 5791
5803 5804 5803 5802 5802 5802 5802 5802 5802 5802 5802 5802 5803 5802 5801 5800 5800 5800 5800 5799 5799 5798 5797 5796 5795 5795 5794 5794 5793 5793 5792 5791 5790 5790 5789 5789 5788 5788 5787 5787 5787 5786 5786 5785
5800 5800 5800 5799 5798 5798 5799 5798 5798 5798 5798 5799 5799 5800 5797 5797 5796 5795 5795 5794 5794 5793 5792 5791 5790 5790 5789 5788 5788 5787 5786 5786 5785 5784 5784 5783 5783 5782 5782 5782 5781 5780 5780 5779
5796 5796 5795 5795 5794 5794 5794 5794 5794 5795 5794 5794 5794 5796 5793 5792 5791 5791 5790 5789 5788 5788 5787 5786 5785 5784 5783 5783 5782 5781 5781 5780 5779 5779 5778 5777 5777 5776 5776 5775 5775 5774 5774 5773
5792 5792 5792 5791 5792 5791 5790 5790 5790 5790 5790 5790 5789 5791 5788 5787 5786 5785 5785 5784 5783 5782 5781 5780 5779 5778 5777 5777 5776 5775 5775 5774 5773 5772 5772 5771 5771 5770 5770 5769 5769 5768 5767 5766
5788 5787 5788 5788 5786 5785 5785 5785 5785 5785 5785 5784 5784 5784 5782 5781 5781 5780 5779 5778 5777 5776 5775 5774 5773 5772 5771 5770 5770 5769 5768 5767 5767 5766 5765 5765 5764 5764 5763 5762 5762 5761 5760 5759
5784 5783 5783 5782 5781 5781 5780 5780 5780 5779 5779 5779 5779 5778 5777 5776 5775 5774 5773 5772 5771 5770 5769 5768 5766 5765 5764 5764 5763 5762 5761 5760 5759 5759 5758 5758 5757 5757 5756 5755 5755 5754 5753 5752
5779 5779 5778 5777 5776 5776 5775 5775 5774 5774 5774 5773 5773 5772 5771 5770 5769 5768 5767 5766 5764 5764 5762 5761 5760 5759 5757 5756 5756 5755 5754 5753 5752 5752 5751 5750 5750 5749 5749 5748 5747 5746 5746 5745
5774 5774 5773 5772 5771 5770 5769 5769 5768 5768 5767 5767 5766 5766 5765 5764 5762 5761 5761 5760 5758 5757 5756 5754 5753 5752 5750 5749 5748 5747 5746 5746 5745 5744 5744 5743 5742 5741 5741 5740 5740 5739 5738 5738
5770 5768 5767 5766 5766 5764 5766 5763 5762 5761 5760 5760 5759 5758 5757 5757 5756 5754 5753 5752 5751 5750 5748 5747 5745 5744 5743 5741 5740 5740 5739 5738 5737 5737 5736 5735 5734 5734 5733 5733 5732 5732 5731 5730
5765 5764 5762 5761 5759 5758 5759 5757 5756 5754 5753 5753 5751 5750 5750 5749 5748 5747 5746 5745 5744 5742 5741 5739 5738 5736 5735 5734 5733 5732 5731 5730 5729 5729 5728 5727 5727 5726 5725 5725 5725 5724 5723 5723
5760 5758 5757 5755 5753 5752 5753 5751 5749 5748 5746 5745 5743 5742 5742 5741 5740 5740 5738 5737 5735 5734 5732 5731 5730 5728 5727 5726 5724 5723 5722 5721 5721 5720 5720 5719 5718 5718 5717 5717 5717 5716 5716 5715
5754 5753 5752 5750 5748 5746 5746 5744 5743 5742 5741 5738 5736 5734 5733 5732 5732 5731 5730 5728 5727 5726 5725 5723 5721 5720 5719 5717 5716 5715 5714 5713 5712 5712 5711 5710 5710 5710 5709 5709 5709 5708 5708 5708
5748 5746 5745 5744 5742 5742 5739 5738 5737 5735 5732 5730 5728 5726 5725 5724 5723 5723 5722 5720 5719 5717 5717 5715 5714 5712 5711 5709 5707 5706 5705 5704 5703 5703 5702 5702 5702 5701 5701 5701 5701 5701 5700 5700
5741 5741 5739 5738 5738 5735 5733 5731 5729 5727 5725 5723 5721 5719 5717 5716 5716 5715 5714 5712 5711 5709 5708 5707 5705 5704 5702 5700 5699 5697 5696 5695 5694 5694 5694 5693 5693 5693 5693 5693 5693 5692 5692 5692
5735 5733 5732 5730 5729 5727 5726 5724 5722 5720 5718 5715 5713 5712 5710 5709 5708 5707 5706 5704 5703 5701 5700 5698 5697 5695 5694 5692 5690 5688 5687 5686 5685 5685 5685 5684 5684 5685 5684 5684 5684 5684 5684 5684
5728 5726 5724 5723 5722 5719 5718 5717 5715 5713 5711 5708 5706 5704 5702 5701 5700 5698 5697 5696 5694 5693 5691 5690 5688 5686 5685 5683 5681 5679 5678 5677 5677 5676 5676 5676 5676 5676 5676 5676 5676 5676 5676 5676
5720 5718 5716 5715 5714 5712 5711 5709 5707 5705 5703 5701 5699 5697 5695 5693 5692 5690 5688 5687 5686 5684 5682 5681 5679 5677 5675 5673 5672 5670 5669 5668 5667 5667 5667 5667 5667 5667 5667 5667 5668 5667 5667 5667